Crane Lake, MN

12:47 PM CDT on June 22, 2017 (GMT -0500)
Crane Lake

Weather History for KCDD - August, 2014

Change the Weather History Date:

Wednesday, August 27, 2014

  Actual Average Record
Temperature  
Mean Temperature 52 °F -  
Max Temperature 68 °F 72 °F 89 °F (2010)
Min Temperature 35 °F 51 °F 35 °F (2014)
Degree Days  
Heating Degree Days 14    
Growing Degree Days 2 (Base 50)    
Moisture  
Dew Point 45 °F    
Average Humidity 82    
Maximum Humidity 100    
Minimum Humidity 52    
Precipitation  
Precipitation 0.00 in - - ()
Sea Level Pressure  
Sea Level Pressure 30.19 in    
Wind  
Wind Speed 0 mph (West)    
Max Wind Speed 5 mph    
Max Gust Speed -    
Visibility 10 miles    
Events      
Averages and records for this station are not official NWS values.
T = Trace of Precipitation, MM = Missing Value Source: NWS Daily Summary

Daily Weather History Graph

Daily Weather History Graph

Search for Another Location

Airport or City:

Trip Planner

Search our weather history database for the weather conditions in past years. The results will help you decide how hot, cold, wet, or windy it might be!

Date:

Astronomy

Aug. 27, 2014 Rise Set
Actual Time 6:20 AM CDT 8:01 PM CDT
Civil Twilight 5:47 AM CDT 8:33 PM CDT
Nautical Twilight 5:07 AM CDT 9:13 PM CDT
Astronomical Twilight 4:23 AM CDT 9:57 PM CDT
Moon 8:29 AM CDT (8/27) 8:39 PM CDT (8/27)
Length of Visible Light 14h 46m
Length of Day
13h 40m
Waxing Crescent, 4% of the Moon is Illuminated
Aug 27
Waxing Crescent
Sep 2
First Quarter
Sep 8
Full
Sep 15
Last Quarter
Sep 24
New

Hourly Weather History & Observations

Time (CDT) Temp. Dew Point Humidity Pressure Visibility Wind Dir Wind Speed Gust Speed Precip Events Conditions
12:02 AM 46.4 °F 44.6 °F 93% 30.18 in 10.0 mi Calm Calm - N/A   Clear
12:11 AM 44.6 °F 44.6 °F 100% 30.18 in 10.0 mi Calm Calm - N/A   Clear
12:31 AM 44.6 °F 44.6 °F 100% 30.20 in 10.0 mi Calm Calm - N/A   Clear
12:51 AM 42.8 °F 42.8 °F 100% 30.20 in 10.0 mi Calm Calm - N/A   Clear
1:11 AM 42.8 °F 41.0 °F 93% 30.20 in 10.0 mi Calm Calm - N/A   Clear
1:31 AM 41.0 °F 41.0 °F 100% 30.20 in 10.0 mi Calm Calm - N/A   Clear
1:52 AM 41.0 °F 41.0 °F 100% 30.20 in 10.0 mi Calm Calm - N/A   Clear
2:11 AM 39.2 °F 39.2 °F 100% 30.20 in 10.0 mi Calm Calm - N/A   Clear
2:31 AM 39.2 °F 39.2 °F 100% 30.20 in 10.0 mi Calm Calm - N/A   Clear
2:51 AM 39.2 °F 39.2 °F 100% 30.21 in 10.0 mi Calm Calm - N/A   Clear
3:12 AM 39.2 °F 37.4 °F 93% 30.21 in 10.0 mi Calm Calm - N/A   Clear
3:31 AM 37.4 °F 37.4 °F 100% 30.21 in 10.0 mi Calm Calm - N/A   Clear
3:51 AM 37.4 °F 37.4 °F 100% 30.21 in 10.0 mi Calm Calm - N/A   Clear
4:11 AM 37.4 °F 37.4 °F 100% 30.21 in 10.0 mi Calm Calm - N/A   Clear
4:32 AM 37.4 °F 37.4 °F 100% 30.21 in 10.0 mi Calm Calm - N/A   Clear
4:52 AM 37.4 °F 35.6 °F 93% 30.21 in 10.0 mi Calm Calm - N/A   Clear
5:11 AM 37.4 °F 35.6 °F 93% 30.21 in 10.0 mi Calm Calm - N/A   Clear
5:31 AM 35.6 °F 35.6 °F 100% 30.21 in 10.0 mi Calm Calm - N/A   Clear
5:51 AM 35.6 °F 35.6 °F 100% 30.22 in 10.0 mi Calm Calm - N/A   Clear
6:11 AM 35.6 °F 35.6 °F 100% 30.22 in 10.0 mi Calm Calm - N/A   Clear
6:32 AM 35.6 °F 35.6 °F 100% 30.21 in 10.0 mi Calm Calm - N/A   Clear
6:51 AM 35.6 °F 35.6 °F 100% 30.21 in 10.0 mi Calm Calm - N/A   Clear
7:11 AM 37.4 °F 37.4 °F 100% 30.22 in 10.0 mi Calm Calm - N/A   Clear
7:33 AM 39.2 °F 37.4 °F 93% 30.22 in 10.0 mi Calm Calm - N/A   Clear
7:51 AM 39.2 °F 39.2 °F 100% 30.22 in 10.0 mi Calm Calm - N/A   Clear
8:12 AM 44.6 °F 44.6 °F 100% 30.22 in 10.0 mi Calm Calm - N/A   Clear
8:31 AM 46.4 °F 46.4 °F 100% 30.22 in 10.0 mi Calm Calm - N/A   Clear
8:51 AM 50.0 °F 46.4 °F 87% 30.22 in 10.0 mi Calm Calm - N/A   Clear
9:11 AM 51.8 °F 48.2 °F 88% 30.22 in 10.0 mi Calm Calm - N/A   Clear
9:31 AM 55.4 °F 48.2 °F 77% 30.22 in 10.0 mi Calm Calm - N/A   Clear
10:11 AM 57.2 °F 48.2 °F 72% 30.22 in 10.0 mi Calm Calm - N/A   Clear
10:31 AM 57.2 °F 48.2 °F 72% 30.22 in 10.0 mi Calm Calm - N/A   Clear
10:51 AM 59.0 °F 46.4 °F 63% 30.22 in 10.0 mi Calm Calm - N/A   Clear
11:11 AM 60.8 °F 46.4 °F 59% 30.22 in 10.0 mi North 4.6 mph - N/A   Scattered Clouds
11:31 AM 60.8 °F 46.4 °F 59% 30.22 in 10.0 mi Calm Calm - N/A   Scattered Clouds
11:51 AM 62.6 °F 46.4 °F 55% 30.22 in 10.0 mi NW 3.5 mph - N/A   Mostly Cloudy
12:12 PM 60.8 °F 46.4 °F 59% 30.22 in 10.0 mi Calm Calm - N/A   Overcast
12:32 PM 60.8 °F 44.6 °F 55% 30.22 in 10.0 mi Calm Calm - N/A   Mostly Cloudy
12:51 PM 62.6 °F 44.6 °F 52% 30.21 in 10.0 mi Calm Calm - N/A   Mostly Cloudy
1:11 PM 62.6 °F 46.4 °F 55% 30.21 in 10.0 mi Calm Calm - N/A   Mostly Cloudy
1:31 PM 64.4 °F 46.4 °F 52% 30.21 in 10.0 mi Calm Calm - N/A   Mostly Cloudy
1:51 PM 64.4 °F 46.4 °F 52% 30.20 in 10.0 mi Calm Calm - N/A   Mostly Cloudy
2:11 PM 64.4 °F 46.4 °F 52% 30.20 in 10.0 mi Calm Calm - N/A   Overcast
2:31 PM 64.4 °F 46.4 °F 52% 30.19 in 10.0 mi Calm Calm - N/A   Mostly Cloudy
2:51 PM 66.2 °F 48.2 °F 52% 30.18 in 10.0 mi SW 3.5 mph - N/A   Scattered Clouds
3:11 PM 64.4 °F 48.2 °F 56% 30.17 in 10.0 mi Calm Calm - N/A   Clear
3:31 PM 64.4 °F 48.2 °F 56% 30.17 in 10.0 mi Calm Calm - N/A   Scattered Clouds
3:51 PM 68.0 °F 50.0 °F 52% 30.17 in 10.0 mi Calm Calm - N/A   Clear
4:11 PM 66.2 °F 50.0 °F 56% 30.16 in 10.0 mi SW 3.5 mph - N/A   Scattered Clouds
4:32 PM 66.2 °F 51.8 °F 60% 30.16 in 10.0 mi Calm Calm - N/A   Scattered Clouds
4:51 PM 66.2 °F 50.0 °F 56% 30.15 in 10.0 mi Calm Calm - N/A   Scattered Clouds
5:11 PM 68.0 °F 51.8 °F 56% 30.15 in 10.0 mi Calm Calm - N/A   Clear
5:31 PM 66.2 °F 50.0 °F 56% 30.15 in 10.0 mi Calm Calm - N/A   Scattered Clouds
5:51 PM 66.2 °F 51.8 °F 60% 30.15 in 10.0 mi Calm Calm - N/A   Mostly Cloudy
6:12 PM 66.2 °F 51.8 °F 60% 30.14 in 10.0 mi Calm Calm - N/A   Mostly Cloudy
6:31 PM 68.0 °F 51.8 °F 56% 30.14 in 10.0 mi Calm Calm - N/A   Scattered Clouds
6:51 PM 64.4 °F 55.4 °F 73% 30.14 in 10.0 mi Calm Calm - N/A   Scattered Clouds
7:11 PM 60.8 °F 57.2 °F 88% 30.14 in 10.0 mi Calm Calm - N/A   Clear
7:32 PM 57.2 °F 55.4 °F 94% 30.13 in 10.0 mi Calm Calm - N/A   Clear
7:51 PM 55.4 °F 53.6 °F 94% 30.13 in 10.0 mi Calm Calm - N/A   Clear
8:12 PM 53.6 °F 53.6 °F 100% 30.14 in 10.0 mi Calm Calm - N/A   Clear
8:32 PM 53.6 °F 51.8 °F 94% 30.14 in 10.0 mi Calm Calm - N/A   Clear
8:51 PM 51.8 °F 50.0 °F 94% 30.15 in 10.0 mi Calm Calm - N/A   Clear
9:11 PM 51.8 °F 50.0 °F 94% 30.15 in 10.0 mi Calm Calm - N/A   Clear
9:31 PM 50.0 °F 48.2 °F 94% 30.14 in 10.0 mi Calm Calm - N/A   Clear
9:52 PM 48.2 °F 48.2 °F 100% 30.14 in 10.0 mi Calm Calm - N/A   Clear
10:11 PM 48.2 °F 48.2 °F 100% 30.15 in 10.0 mi Calm Calm - N/A   Clear
10:32 PM 48.2 °F 46.4 °F 93% 30.15 in 10.0 mi Calm Calm - N/A   Clear
10:52 PM 46.4 °F 46.4 °F 100% 30.14 in 10.0 mi Calm Calm - N/A   Clear
11:11 PM 46.4 °F 46.4 °F 100% 30.14 in 10.0 mi Calm Calm - N/A   Clear
11:32 PM 46.4 °F 44.6 °F 93% 30.15 in 10.0 mi Calm Calm - N/A   Clear